Regional Weather Roundup
Issued by NWS Charleston, WV

Home | Current Version | Previous Version | Graphics & Text | Print | Product List | Glossary On
Versions: 1 2 3 4 5 6 7 8 9 10 11 12 13 14 15 16 17 18 19 20 21 22 23 24 25 26 27 28 29 30 31 32 33 34 35 36 37 38 39 40 41 42 43 44 45 46 47 48 49 50
000
ASUS41 KRLX 290210
RWRRLX
West Virginia Regional Weather Roundup
National Weather Service Charleston WV
1000 PM EDT FRI AUG 28 2015

Note: "fair" indicates few or no clouds below 12,000 feet with no
significant weather and/or obstructions to visibility.

WVZ003-290300-
Northern Panhandle of West Virginia

CITY           SKY/WX    TMP DP  RH WIND       PRES   REMARKS
WHEELING       PTCLDY    68  53  58 E5        30.18R
$$

WVZ009-290300-
Northwest West Virginia

CITY           SKY/WX    TMP DP  RH WIND       PRES   REMARKS
PARKERSBURG    PTCLDY    64  58  80 CALM      30.19R
$$

WVZ006-290300-
Western West Virginia

CITY           SKY/WX    TMP DP  RH WIND       PRES   REMARKS
HUNTINGTON     CLEAR     69  61  75 CALM      30.15R
$$

WVZ015-290300-
West Central West Virginia

CITY           SKY/WX    TMP DP  RH WIND       PRES   REMARKS
CHARLESTON     CLEAR     67  63  87 CALM      30.17R
$$

WVZ022-031-290300-
North Central West Virginia

CITY           SKY/WX    TMP DP  RH WIND       PRES   REMARKS
CLARKSBURG     CLEAR     65  58  78 CALM      30.19R
MORGANTOWN     CLEAR     67  53  61 CALM      30.20R
$$

WVZ025-035-042-045-290300-
Southern West Virginia

CITY           SKY/WX    TMP DP  RH WIND       PRES   REMARKS
BECKLEY        CLEAR     66  59  78 CALM      30.24R
LOGAN            N/A     72  61  68 CALM      30.20R
BLUEFIELD      PTCLDY    71  57  61 S5        30.27R
LEWISBURG      MOCLDY    68  61  77 CALM      30.25R
$$

WVZ047-290300-
Northern Mountains of West Virginia

CITY           SKY/WX    TMP DP  RH WIND       PRES   REMARKS
ELKINS         CLEAR     60  57  89 CALM      30.24R
$$

WVZ052-290300-
Eastern Panhandle of West Virginia

CITY           SKY/WX    TMP DP  RH WIND       PRES   REMARKS
MARTINSBURG    PTCLDY    66  60  81 CALM      30.19R
PETERSBURG     PTCLDY    66  62  85 NW3       30.20R
$$



USA.gov is the U.S. government's official web portal to all federal, state and local government web resources and services.